CZ-6A DEB

Satellite information

Favourite Embed

Satellite Type and Status

DEBRISIN ORBIT

Key statistics

Satellite CZ-6A DEB at a glance.

Uptime

1128

Days in orbit

Revolutions

≈ 14.4

Per day

Orbit

SSO

Sun Synchronous Orbit

Inclination

98.7

Latest

Satellite identification and parameters

Extended collection of information and parameters for CZ-6A DEB.

Object identification

Identified? True

Debris? True

Object name: CZ-6A DEB

International designator: 2022-151JN

Object number (NORAD): 54510

Object ID (CCSDS): 54510

Country: PEOPLES REPUBLIC OF CHINA (PRC)

Current information (Y/N): Y

RCS size: SMALL

Orbital parameters

Period: 99.789 minutes

Inclination: 98.6956 deg

SMA: 7126.574 km

Apoapsis: 793.355 km

Periapsis: 703.522 km

RAAN: 25.1581 deg

Eccentricy: 0.00630265

Argument of periapsis: 136.7807 deg

Mean anomaly: 223.8353 deg

Mean motion: 14.43050695 rev/day

Mean motion (dot): 0.00004641 rev/day2

B* drag term: 0.001364782 1/REarth

Two-line elements (TLE)

Creation date: Dec. 12, 2025, 10:14 a.m.

Reference frame: TEME

Reference center: EARTH

Epoch: Dec. 12, 2025, 1:51 a.m. UTC

TLE line 0: 0 CZ-6A DEB

TLE line 1: 1 54510U 22151JN 25346.07727605 .00004641 00000-0 13648-2 0 9999

TLE line 2: 2 54510 98.6956 25.1581 0063027 136.7807 223.8353 14.43050695161496

Live tracking on map

Real-time ground track for satellite CZ-6A DEB.

In-orbit conjunctions

A list of the most updated potential collisions computed for object CZ-6A DEB.

Target Orbit TCA Probability of collision Miss distance Type
RITE TARGET 2 SSO 2025-08-08 00:34:11 0.0001522711 149.0 (m) PAYLOAD
IRIDIUM 4 LEO 2025-08-07 12:52:38 0.0002953508 614.0 (m) PAYLOAD
CZ-6A DEB LEO 2025-04-11 13:22:52 0.0002661358 94.0 (m) DEBRIS
CZ-6A DEB LEO 2025-04-10 19:01:16 0.0001215606 35.0 (m) DEBRIS
CZ-6A DEB LEO 2025-03-20 02:07:10 0.0001501856 336.0 (m) DEBRIS

Associated space launch

Chinese satellite reported for atmospheric/ocean/environmental/spatial parameter research purposes, details TBD.

CZ-6A DEB was lifted into orbit during the mission ‘Long March 6A | Yunhai 3’, on board a Long March 6A space rocket.

The launch took place on Nov. 11, 2022, 10:52 p.m. from Launch Complex 9A.

For more information about the launch, click the button.

Launch to space Long March 6A | Yunhai 3
Long March 6A | Yunhai 3

Agency: N/A

Status: Launch Successful

Launch date: Nov. 11, 2022, 10:52 p.m. UTC

Rocket: Long March 6A

Launch pad: Launch Complex 9A

Location: Taiyuan Satellite Launch Center, People's Republic of China

...

Latest news about this satellite

There are no fresh news available about this satellite. Check back as we update our databases every day.


Newsletter sign-up

Weekly statistics, charts and insights to help you stay on top of the space industry.